Location: Unspecified
(0.0000°N, 0.0000°E)
Time: 06:08:40
(UTC+00:00)

Transit 4A - Pass Details

Date: 01 October 2020
Orbit: 862 x 982 km, 66.8° (Epoch: 28 October)

Event Time Altitude Azimuth Distance (km) Brightness Sun altitude
Rises 19:42:25 0° 201° (SSW) 3,462 11.2 -28.2°
Reaches altitude 10° 19:44:53 10° 201° (SSW) 2,534 10.4 -28.8°
Enters shadow 19:50:07 73° 212° (SSW) 936 7.9 -30.1°
Maximum altitude 19:50:45 86° 289° (WNW) 902 - -30.3°
Drops below altitude 10° 19:56:48 10° 18° (NNE) 2,602 - -31.8°
Sets 19:59:20 0° 19° (NNE) 3,561 - -32.4°
